This is the latest recevied weather packets stored in our database for station/object YO6LRV-3. If no packets are shown the sender has not sent any weather packets the latest 10 day(s).
| Time | Temp. | Humidity | Pressure | Rain* | Wind** | Luminosity | Snow |
|---|---|---|---|---|---|---|---|
| 1777704662 | 7.78° C | 52% | 1021.8 hPa | - | - | - | - |
| 1777703762 | 7.78° C | 51% | 1022 hPa | - | - | - | - |
| 1777702862 | 7.22° C | 54% | 1021.9 hPa | - | - | - | - |
| 1777701962 | 7.22° C | 53% | 1021.8 hPa | - | - | - | - |
| 1777701062 | 7.22° C | 52% | 1022 hPa | - | - | - | - |
| 1777700162 | 6.67° C | 52% | 1021.9 hPa | - | - | - | - |
| 1777699262 | 6.67° C | 51% | 1021.8 hPa | - | - | - | - |
| 1777698361 | 6.67° C | 51% | 1021.7 hPa | - | - | - | - |
| 1777697461 | 6.11° C | 50% | 1021.7 hPa | - | - | - | - |
| 1777695661 | 6.11° C | 48% | 1021.6 hPa | - | - | - | - |
| 1777694761 | 6.11° C | 48% | 1021.4 hPa | - | - | - | - |
| 1777692961 | 6.11° C | 48% | 1021.2 hPa | - | - | - | - |
| 1777692060 | 6.67° C | 49% | 1021.2 hPa | - | - | - | - |
| 1777690260 | 6.67° C | 48% | 1021.1 hPa | - | - | - | - |
| 1777689360 | 6.67° C | 48% | 1021.1 hPa | - | - | - | - |
| 1777688460 | 6.67° C | 49% | 1021.1 hPa | - | - | - | - |
| 1777687560 | 6.67° C | 48% | 1021.2 hPa | - | - | - | - |
| 1777685760 | 7.22° C | 47% | 1021.1 hPa | - | - | - | - |
| 1777683962 | 7.22° C | 47% | 1021.2 hPa | - | - | - | - |
| 1777683062 | 6.67° C | 46% | 1020.5 hPa | - | - | - | - |
| 1777682161 | 7.78° C | 46% | 1021.2 hPa | - | - | - | - |
| 1777681261 | 7.78° C | 46% | 1021.2 hPa | - | - | - | - |
| 1777680361 | 7.78° C | 46% | 1021.4 hPa | - | - | - | - |
| 1777679461 | 7.78° C | 44% | 1021.4 hPa | - | - | - | - |
| 1777678561 | 8.33° C | 44% | 1021.5 hPa | - | - | - | - |
* Rain since midnight (hover to see other rain measurements)
** Current wind speed in m/s (hover to see current wind gust speed)